Volver al catálogo

STARLINK-4450

ActivoComunicacionesSSO
NORAD 53491·PAYLOAD·🇺🇸 United States

Lanzado Aug 12, 2022 desde Vandenberg Space Force Base

Loading…

Próximos Pases (próximas 24 horas)

TLE

ActualizadoSource: CelesTrak SupGP

Época: Sep 15, 2026, 01:24 UTC

1 53491C 22099AC  26258.05881944 -.00055468  00000+0 -15394-2 0  2587
2 53491  97.5085  25.9031 0000851  89.0579  79.8573 15.36990447    18

Sigue STARLINK-4450 en tiempo real con AllMySat

Download on the App Store